Whidbey Island, WA
on Saturday, January 19, 2013

Saturday
Previous Day Next Day
Daily Summary
 ActualAverageRecord
Temperature
Mean Temperature °F °F  
Max Temperature 41°F 45°F 61°F (2005)
Min Temperature 30°F 35°F 24°F (2012)
Degree Days
Heating Degree Days 30    
Moisture
Dew Point 32°F   
Average Humidity 89    
Maximum Humidity 93    
Minimum Humidity 79    
Precipitation
Precipitation 0.00 in in in ()
Wind
Wind Speed 4 mph   
Max Wind Speed 6 mph   
Max Gust Speed mph   
Visibility 4 miles   
Events Fog   
Averages and records for this station are not official NWS values.
Key: T is trace of precipitation, MM is missing value
Source: NWS Daily Summary
Seasonal Weather Averages
Time(PST)TemperatureDew PointHumidity Pressure Visibility Wind DirectionWind SpeedGust SpeedPrecipitationEvents Conditions
12:56 AM 35.1°F 33.1°F 92% 30.37 in 1.5 miles East 4.6 mph - N/A   Overcast
1:56 AM 35.1°F 33.1°F 92% 30.38 in 2.0 miles ENE 4.6 mph - N/A   Overcast
2:56 AM 36.0°F 33.1°F 89% 30.38 in 2.0 miles Calm Calm - N/A   Overcast
3:56 AM 35.1°F 32.0°F 89% 30.38 in 2.0 miles NNE 5.8 mph - N/A   Overcast
4:56 AM 36.0°F 33.1°F 89% 30.38 in 2.5 miles NE 3.5 mph - N/A   Overcast
5:56 AM 35.1°F 32.0°F 89% 30.38 in 2.0 miles ESE 4.6 mph - N/A   Overcast
6:56 AM 35.1°F 33.1°F 92% 30.38 in 2.0 miles SE 3.5 mph - N/A   Overcast
7:56 AM 36.0°F 33.1°F 89% 30.39 in 2.5 miles NE 4.6 mph - N/A   Overcast
8:56 AM 35.1°F 33.1°F 92% 30.40 in 2.5 miles Variable 4.6 mph - N/A   Overcast
9:56 AM 36.0°F 33.1°F 89% 30.42 in 5.0 miles Variable 3.5 mph - N/A   Overcast
10:56 AM 37.9°F 35.1°F 89% 30.41 in 6.0 miles Variable 4.6 mph - N/A   Overcast
11:56 AM 37.9°F 35.1°F 89% 30.39 in 7.0 miles NNW 3.5 mph - N/A   Overcast
12:56 PM 39.0°F 37.0°F 93% 30.38 in 7.0 miles Calm Calm - N/A   Mostly Cloudy
1:18 PM 39.2°F 37.4°F 93% 30.36 in 8.0 miles ESE 3.5 mph - N/A   Mostly Cloudy
1:56 PM 39.9°F 36.0°F 86% 30.38 in 10.0 miles Calm Calm - N/A   Mostly Cloudy
2:56 PM 41.0°F 35.1°F 79% 30.36 in 10.0 miles Calm Calm - N/A   Mostly Cloudy
3:56 PM 41.0°F 35.1°F 79% 30.37 in 10.0 miles ESE 3.5 mph - N/A   Mostly Cloudy
4:56 PM 35.1°F 30.9°F 85% 30.37 in 7.0 miles SSE 4.6 mph - N/A   Mostly Cloudy
5:56 PM 35.1°F 32.0°F 89% 30.38 in 6.0 miles ESE 3.5 mph - N/A   Mostly Cloudy
6:56 PM 34.0°F 30.9°F 89% 30.38 in 5.0 miles ESE 3.5 mph - N/A   Mostly Cloudy
7:56 PM 32.0°F 30.0°F 92% 30.39 in 4.0 miles ESE 3.5 mph - N/A   Scattered Clouds
8:56 PM 32.0°F 28.9°F 88% 30.40 in 4.0 miles SE 4.6 mph - N/A   Scattered Clouds
9:41 PM 32.0°F 28.4°F 87% 30.38 in 1.0 miles SE 4.6 mph - N/A   Overcast
9:56 PM 30.9°F 28.0°F 89% 30.40 in 1.0 miles ESE 3.5 mph - N/A   Mostly Cloudy
10:26 PM 32.0°F 28.4°F 87% 30.38 in 0.1 miles SE 4.6 mph - N/A Fog Fog
10:56 PM 32.0°F 28.0°F 85% 30.40 in 0.1 miles SSE 4.6 mph - N/A Fog Fog
11:39 PM 32.0°F 30.2°F 93% 30.39 in 0.1 miles Calm Calm - N/A Fog Fog
11:56 PM 32.0°F 30.0°F 92% 30.41 in 0.1 miles Calm Calm - N/A Fog Fog
Moon Phase
Jan. 19 Jan. 26 Feb. 03 Feb. 10 Feb. 17
Sunrise:07:53 AM (PST) Moon Rise:11:24 AM (PST)1/19
Sunset:04:50 PM (PST) Moon Set:01:26 AM (PST)1/19

Copyright © 2014 The Weather Underground, Inc.